Content
SEND FEEDBACK

Daily
Averages
Monthly
Summary
United States of America

DOYLE, CALIFORNIA


Home > North America > United States > California
Elevation: 1536 meters     Latitude: 39 57N     Longitude: 120 05W

WEATHER
 
SELECT A DAY
Number of Records: 66,271;   Date Range: 9/21/11 - 8/29/14
 
SHARE

PRINT THIS DATA

[ ← Previous Day ]
WEATHER ALMANAC - 13 FEBRUARY, 2013
[ Next Day → ]
[ °F ]   °C
Weather ElementAverageHighLow
Temperature0.7 °C10 °C (2:10 pm) (7:35 am)
Dewpoint-5.8 °C-4 °C (8:35 am) (7:00 pm)
Humidity64.8 %86 % (3:10 am)37 % (1:15 pm)
Barometer998.6 hPa1029.8 hPa (9:55 am) (7:00 pm)
Wind Speed5.1 km/h18.5 km/h (3:10 pm)
Wind Gust25.9 km/h (3:10 pm)
Weather ElementAverage
Visibility16.1 km
Wind DirectionESE (102.9 °)

Weather ElementTotal
Precipitation---
Heating Degree Days22.2 (Base 18.3)
Averaged from 70 records on 13 February, 2013
WEATHER CONDITIONS BREAKOUT
WIND DIRECTION BREAKOUT
WEATHER BY HOUR - 13 FEBRUARY, 2013
[ °F ]   °C
Local TimeTemperatureDewpointHumidityBarometerVisibilityWind DirectionWind SpeedGust SpeedPrecipitationEventsConditions
12:35 AM-4 °C-7 °C80 %1029.1 hPa16.1 kmSE (130°)5.6 km/hClear
12:55 AM-5 °C-8 °C80 %1029.1 hPa16.1 kmCalmClear
1:15 AM-5 °C-8 °C80 %1029.1 hPa16.1 kmCalmClear
1:30 AM-4 °C-7 °C80 %1029.1 hPa16.1 kmNorth (10°)7.4 km/hClear
1:50 AM-4 °C-7 °C80 %1029.1 hPa16.1 kmCalmClear
2:10 AM-4 °C-7 °C80 %1029.1 hPa16.1 kmCalmClear
2:35 AM-4 °C-7 °C80 %1028.8 hPa16.1 kmCalmClear
2:55 AM-4 °C-7 °C80 %1028.8 hPa16.1 kmCalmClear
3:10 AM-5 °C-7 °C86 %1028.4 hPa16.1 kmCalmClear
3:35 AM-5 °C-8 °C80 %1028.4 hPa16.1 kmNorthClear
4:10 AM-7 °C-9 °C86 %1028.4 hPa16.1 kmWNW (300°)5.6 km/hClear
4:30 AM-7 °C-9 °C86 %1028.4 hPa16.1 kmCalmClear
4:50 AM-7 °C-9 °C86 %1028.4 hPa16.1 kmCalmClear
5:10 AM-6 °C-8 °C86 %1028.4 hPa16.1 kmCalmClear
5:30 AM-6 °C-8 °C86 %1028.8 hPa16.1 kmCalmClear
5:50 AM-5 °C-7 °C86 %1028.8 hPa16.1 kmCalmClear
6:15 AM-5 °C-7 °C86 %1028.8 hPa12.9 kmNE (40°)7.4 km/hClear
6:30 AM-7 °C-9 °C86 %1028.8 hPa16.1 kmNW (310°)5.6 km/hClear
6:50 AM-7 °C-9 °C86 %1029.1 hPa16.1 kmWSW (250°)5.6 km/hClear
7:10 AM-7 °C-9 °C86 %1029.5 hPa16.1 kmNorth (350°)5.6 km/hClear
7:35 AM-17.8 °C-17.8 °C16.1 kmNorth
7:55 AM-4 °C-6 °C86 %1029.1 hPa16.1 kmCalm
8:10 AM-3 °C-5 °C86 %1029.1 hPa16.1 kmCalmClear
8:35 AM0 °C-4 °C75 %1029.5 hPa16.1 kmNNE (30°)5.6 km/hClear
8:55 AM0 °C-4 °C75 %1029.5 hPa16.1 kmCalmClear
9:15 AM1 °C-4 °C70 %1029.5 hPa16.1 kmSouth (190°)7.4 km/hClear
9:35 AM1 °C-4 °C70 %1029.5 hPa16.1 kmSW (220°)5.6 km/hClear
9:55 AM3 °C-4 °C60 %1029.8 hPa16.1 kmCalmClear
10:15 AM4 °C-4 °C56 %1029.5 hPa16.1 kmCalmClear
10:35 AM4 °C-5 °C52 %1029.5 hPa16.1 kmCalmClear
10:55 AM5 °C-5 °C49 %1029.5 hPa16.1 kmCalmClear
11:15 AM6 °C-5 °C46 %1029.1 hPa16.1 kmSouth (170°)5.6 km/hClear
11:35 AM7 °C-5 °C43 %1028.8 hPa16.1 kmCalmClear
11:55 AM7 °C-6 °C39 %1028.4 hPa16.1 kmESE (110°)5.6 km/hClear
12:15 PM8 °C-5 °C40 %1028.1 hPa16.1 kmCalmClear
12:35 PM8 °C-4 °C43 %1028.1 hPa16.1 kmSouth (190°)5.6 km/hClear
12:55 PM8 °C-5 °C40 %1027.8 hPa16.1 kmCalmClear
1:15 PM9 °C-5 °C37 %1027.4 hPa16.1 kmESE (120°)7.4 km/hClear
1:35 PM9 °C-4 °C40 %1027.1 hPa16.1 kmSE (130°)9.3 km/hClear
1:55 PM9 °C-4 °C40 %1027.1 hPa16.1 kmSouth (170°)5.6 km/hClear
2:10 PM10 °C-4 °C37 %1026.8 hPa16.1 kmSE (130°)13 km/hClear
2:35 PM10 °C-4 °C37 %1026.8 hPa16.1 kmEast (100°)14.8 km/hClear
2:55 PM10 °C-4 °C37 %1026.8 hPa16.1 kmEast (90°)16.7 km/hClear
3:10 PM10 °C-4 °C37 %1026.8 hPa16.1 kmEast (90°)18.5 km/h25.9 km/hClear
3:35 PM10 °C-4 °C37 %1026.4 hPa16.1 kmEast (80°)11.1 km/hClear
3:55 PM10 °C-4 °C37 %1026.4 hPa16.1 kmEast (80°)9.3 km/hClear
4:15 PM10 °C-4 °C37 %1026.4 hPa16.1 kmEast (80°)11.1 km/hClear
4:35 PM10 °C-4 °C37 %1026.4 hPa16.1 kmEast (80°)11.1 km/hClear
4:55 PM9 °C-4 °C40 %1026.1 hPa16.1 kmENE (70°)11.1 km/hClear
5:15 PM9 °C-5 °C37 %1026.1 hPa16.1 kmEast (80°)7.4 km/hClear
5:35 PM-17.8 °C-17.8 °CNorth
5:55 PM6 °C-5 °C46 %1026.4 hPa16.1 kmSE (130°)7.4 km/h
6:15 PM4 °C-5 °C52 %1026.4 hPa16.1 kmNW (310°)5.6 km/hClear
6:30 PM4 °C-5 °C52 %1026.4 hPa16.1 kmCalmClear
6:50 PM2 °C-4 °C65 %1026.4 hPa16.1 kmNNE (20°)5.6 km/hClear
7:10 PM3 °C-4 °C60 %1026.8 hPa16.1 kmNorth (360°)11.1 km/hClear
7:30 PM2 °C-5 °C60 %1026.8 hPa16.1 kmNNW (340°)9.3 km/hClear
7:50 PM2 °C-4 °C65 %1026.8 hPa16.1 kmNorth (10°)7.4 km/hClear
8:15 PM2 °C-4 °C65 %1026.8 hPa16.1 kmNNW (340°)5.6 km/hClear
8:30 PM0 °C-5 °C69 %1026.8 hPa16.1 kmNorth (360°)11.1 km/hClear
8:50 PM0 °C-4 °C75 %1026.8 hPa16.1 kmNNW (340°)11.1 km/hClear
9:10 PM0 °C-4 °C75 %1026.8 hPa16.1 kmNorth (350°)13 km/hClear
9:30 PM-1 °C-4 °C80 %1027.1 hPa16.1 kmNorth (350°)9.3 km/hClear
9:50 PM-1 °C-4 °C80 %1027.1 hPa16.1 kmCalmClear
10:10 PM-2 °C-5 °C80 %1027.1 hPa16.1 kmNW (320°)9.3 km/hClear
10:30 PM-3 °C-5 °C86 %1027.1 hPa16.1 kmNNE (30°)9.3 km/hClear
10:55 PM0 °C-4 °C75 %1027.4 hPa16.1 kmCalmClear
11:10 PM-2 °C-5 °C80 %1027.4 hPa16.1 kmCalmClear
11:30 PM-1 °C-5 °C75 %1027.4 hPa16.1 kmCalmClear
11:50 PM-2 °C-5 °C80 %1027.4 hPa16.1 kmNNW (340°)9.3 km/hClear
Hourly data recorded from KRTS, located 0 kilometers away from Doyle, California







STORIES FROM OUR PARTNERS